Regional Weather Roundup
Issued by NWS

Home | Current Version | Previous Version | Graphics & Text | Print | Product List | Glossary On
Versions: 1 2 3 4 5 6 7 8 9 10 11 12 13 14 15 16 17 18 19 20 21 22 23 24 25 26 27 28 29 30 31 32 33 34 35 36 37 38 39 40 41 42 43 44 45 46 47 48 49 50
000
ASUS43 KBIS 211731
RWRND
NORTH DAKOTA REGIONAL WEATHER ROUNDUP
NATIONAL WEATHER SERVICE EASTERN NORTH DAKOTA/GRAND FORKS ND
1100 AM CST WED FEB 21 2018

  NOTE: "FAIR" INDICATES FEW OR NO CLOUDS BELOW 12,000 FEET WITH NO
  SIGNIFICANT WEATHER AND/OR OBSTRUCTIONS TO VISIBILITY.

NDZ001>003-009>011-017-211800-
...NORTHWEST NORTH DAKOTA...

CITY           SKY/WX    TMP DP  RH WIND       PRES   REMARKS
WILLISTON      FAIR      -2 -11  65 SW6       30.33F WCI -14
MINOT          FAIR       4  -6  63 W22       30.33R WCI -18
MINOT AFB      FAIR       3  -7  64 W16       30.33R WCI -16
$$

NDZ018>021-031>035-040>046-211800-
...SOUTHWEST NORTH DAKOTA...

CITY           SKY/WX    TMP DP  RH WIND       PRES   REMARKS
BISMARCK       FAIR       5  -8  55 SW9       30.43R WCI  -9
DICKINSON      FAIR       5  -7  57 SW10      30.28S WCI -10
GARRISON         N/A      2  -9  60 W10       30.35R WCI -14
HETTINGER      FLURRIES   2 -10  57 CALM      30.33R
$$

NDZ004>008-012>016-024-026-027-054-211800-
...NORTHEAST NORTH DAKOTA...

CITY           SKY/WX    TMP DP  RH WIND       PRES   REMARKS
GRAND FORKS    FAIR       4  -5  66 SW8       30.46R WCI  -9
GRAND FORKS AF SUNNY      9  -6  52 W7        30.48R WCI  -3
DEVILS LAKE    FAIR      -1  -9  68 SW15      30.38R WCI -21
$$

NDZ022-023-025-028>030-036>039-047>053-211800-
...SOUTHEAST NORTH DAKOTA...

CITY           SKY/WX    TMP DP  RH WIND       PRES   REMARKS
JAMESTOWN      FAIR       6  -5  60 S9        30.41R WCI  -8
FARGO          FAIR       2  -6  69 S10       30.52R WCI -14
WAHPETON       FAIR       3  -8  60 S3        30.56R
$$




USA.gov is the U.S. government's official web portal to all federal, state and local government web resources and services.